Location: Black Forest
(43.4794°N, 75.0081°W)
Time: 09:09:31
(UTC-04:00)

ISS - All Passes

Search period start: 30 July 2014 00:00
Search period end: 09 August 2014 00:00
Orbit: 411 x 419 km, 51.6° (Epoch: 30 July)

Date Brightness Start Highest point End Pass type
(mag) Time Alt. Az. Time Alt. Az. Time Alt. Az.
30 Jul - 01:19:20 10° W 01:22:21 30° NNW 01:25:22 10° NE visible
30 Jul - 02:57:14 10° NW 02:59:48 20° N 03:02:22 10° NE visible
30 Jul - 04:34:04 10° NW 04:37:12 35° NNE 04:40:20 10° E visible
30 Jul - 06:10:46 10° WNW 06:13:58 41° SW 06:17:09 10° SSE daylight
30 Jul - 22:53:42 10° SSW 22:56:44 33° SE 22:59:46 10° ENE night (unlit)
31 Jul - 00:30:13 10° W 00:33:24 40° NNW 00:36:36 10° NE visible
31 Jul - 02:08:10 10° NW 02:10:45 20° N 02:13:20 10° NE visible
31 Jul - 03:45:17 10° NW 03:48:14 27° NNE 03:51:10 10° ENE visible
31 Jul - 05:21:51 10° WNW 05:25:12 72° SW 05:28:33 10° SE daylight
31 Jul - 22:05:34 10° S 22:08:03 20° SE 22:10:32 10° E night (unlit)
31 Jul - 23:41:12 10° WSW 23:44:30 59° NNW 23:47:49 10° NE night (unlit)
01 Aug - 01:19:01 10° WNW 01:21:42 22° N 01:24:24 10° NE visible
01 Aug - 02:56:28 10° NW 02:59:13 23° NNE 03:01:58 10° ENE visible
01 Aug - 04:33:00 10° NW 04:36:22 70° NNE 04:39:43 10° ESE visible
01 Aug - 06:10:33 10° W 06:12:44 16° SW 06:14:55 10° S daylight
01 Aug - 21:18:14 10° SSE 21:19:25 12° SE 21:20:37 10° ESE visible
01 Aug - 22:52:18 10° SW 22:55:38 86° SSE 22:59:00 10° ENE visible
02 Aug - 00:29:50 10° WNW 00:32:41 25° NNW 00:35:32 10° NE visible
02 Aug - 02:07:34 10° NW 02:10:10 21° N 02:12:47 10° ENE visible
02 Aug - 03:44:13 10° NW 03:47:29 46° NNE 03:50:44 10° E visible
02 Aug - 05:21:10 10° WNW 05:24:04 27° SW 05:26:58 10° SSE daylight
02 Aug - 22:03:36 10° SW 22:06:50 50° SE 22:10:06 10° ENE visible
02 Aug - 23:40:38 10° W 23:43:41 31° NNW 23:46:44 10° NE visible
03 Aug - 01:18:33 10° NW 01:21:06 20° N 01:23:40 10° NE visible
03 Aug - 02:55:26 10° NW 02:58:31 33° NNE 03:01:37 10° E visible
03 Aug - 04:32:05 10° WNW 04:35:20 46° SW 04:38:34 10° SE visible
03 Aug - 21:15:09 10° SSW 21:18:05 29° SE 21:21:02 10° ENE visible
03 Aug - 22:51:30 10° W 22:54:43 43° NNW 22:57:56 10° NE visible
04 Aug - 00:29:27 10° NW 00:32:02 20° N 00:34:37 10° NE visible
04 Aug - 02:06:37 10° NW 02:09:31 26° NNE 02:12:25 10° ENE visible
04 Aug - 03:43:10 10° WNW 03:46:31 79° SW 03:49:53 10° SE visible
04 Aug - 05:21:58 10° WSW 05:22:43 11° SW 05:23:27 10° SW visible
04 Aug - 20:27:05 10° S 20:29:23 18° SE 20:31:42 10° E daylight
04 Aug - 22:02:29 10° WSW 22:05:47 65° NNW 22:09:07 10° NE visible
04 Aug - 23:40:15 10° WNW 23:42:58 22° N 23:45:41 10° NE visible
05 Aug - 01:17:46 10° NW 01:20:28 22° N 01:23:11 10° ENE visible
05 Aug - 02:54:19 10° NW 02:57:39 64° NNE 03:00:59 10° ESE night (unlit)
05 Aug - 04:31:41 10° W 04:34:04 18° SW 04:36:26 10° S visible
05 Aug - 19:40:20 10° SE 19:40:45 10° SE 19:41:09 10° ESE daylight
05 Aug - 21:13:36 10° SW 21:16:55 78° SE 21:20:16 10° ENE visible
05 Aug - 22:51:02 10° WNW 22:53:55 26° NNW 22:56:48 10° NE visible
06 Aug - 00:28:49 10° NW 00:31:24 20° N 00:33:59 10° NE visible
06 Aug - 02:05:30 10° NW 02:08:43 42° NNE 02:11:56 10° E night (unlit)
06 Aug - 03:42:22 10° WNW 03:45:21 30° SW 03:48:20 10° SSE night (unlit)
06 Aug - 20:24:55 10° SW 20:28:06 45° SE 20:31:18 10° ENE daylight
06 Aug - 22:01:49 10° W 22:04:53 33° NNW 22:07:58 10° NE visible
06 Aug - 23:39:45 10° NW 23:42:18 20° N 23:44:51 10° NE visible
07 Aug - 01:16:41 10° NW 01:19:44 31° NNE 01:22:46 10° E visible
07 Aug - 02:53:18 10° WNW 02:56:35 52° SW 02:59:50 10° SE night (unlit)
07 Aug - 19:36:30 10° SSW 19:39:20 26° SE 19:42:11 10° ENE daylight
07 Aug - 21:12:41 10° W 21:15:54 46° NNW 21:19:09 10° NE visible
07 Aug - 22:50:36 10° WNW 22:53:12 20° N 22:55:48 10° NE visible
08 Aug - 00:27:50 10° NW 00:30:41 25° NNE 00:33:32 10° ENE visible
08 Aug - 02:04:22 10° WNW 02:07:44 88° SSW 02:11:05 10° SE night (unlit)
08 Aug - 03:42:38 10° WSW 03:43:58 12° SW 03:45:17 10° SSW night (unlit)
08 Aug - 18:48:31 10° S 18:50:37 16° SE 18:52:43 10° E daylight
08 Aug - 20:23:39 10° WSW 20:26:58 71° NNW 20:30:18 10° NE daylight
08 Aug - 22:01:22 10° WNW 22:04:06 23° NNW 22:06:51 10° NE visible
08 Aug - 23:38:56 10° NW 23:41:36 22° N 23:44:17 10° ENE visible
